Location: Mount Cross
(36.6390°N, 79.4878°W)
Time: 17:18:46
(UTC+00:00)

Courier 1B Rocket - Pass Details

Date: 27 March 2023
Orbit: 920 x 1202 km, 28.2° (Epoch: 08 June)

Event Time Altitude Azimuth Distance (km) Brightness Sun altitude
Rises 01:53:39 0° 249° (WSW) 3,850 8.7 -27.6°
Reaches altitude 10° 01:56:37 10° 242° (WSW) 2,848 7.8 -28.1°
Enters shadow 02:01:48 37° 199° (SSW) 1,514 5.8 -29.0°
Maximum altitude 02:02:57 40° 176° (S) 1,435 - -29.2°
Drops below altitude 10° 02:08:55 10° 108° (ESE) 2,678 - -30.3°
Sets 02:11:38 0° 101° (E) 3,595 - -30.7°
